Retour au catalogue

ONEWEB-0047

ActifCommunicationsPO
NORAD 45152·PAYLOAD·🇬🇧 United Kingdom

Lancé Feb 6, 2020 depuis Baikonur Cosmodrome

Loading…

Prochains Passages (prochaines 24 heures)

TLE

FraisSource: CelesTrak SupGP

Époque: Sep 14, 2026, 15:55 UTC

1 45152C 20008X   26257.66338380  .00002966  00000+0  85071-2 0  2578
2 45152  87.8913  18.4567 0001711  94.2030  16.4860 13.10368830    13

Suivez ONEWEB-0047 en temps réel avec AllMySat

Download on the App Store